{"data":{"norad_id":61065,"epoch":"2026-09-21T03:30:38.804544Z","epoch_age_seconds":136201,"freshness":"FRESH","line1":"1 61065U 24164R   26264.14628246 -.00000482  00000+0 -31272-5 0  9993","line2":"2 61065  53.1614 262.4796 0001461  59.9297 300.1851 15.34386416113418","mean_motion":15.34386416,"eccentricity":0.0001461,"inclination_deg":53.1614,"raan_deg":262.4796,"arg_perigee_deg":59.9297,"mean_anomaly_deg":300.1851,"bstar":-3.1272e-6,"rev_number":11341,"period_min":93.84858892025,"perigee_km":461.74416235781,"apogee_km":463.74306767352,"semimajor_km":6840.8806150157,"source":"CELESTRAK","updated_at":"2026-09-22T09:00:49.334377Z"}}